Regional Weather Roundup
Issued by NWS

Home | Current Version | Previous Version | Graphics & Text | Print | Product List | Glossary On
Versions: 1 2 3 4 5 6 7 8 9 10 11 12 13 14 15 16 17 18 19 20 21 22 23 24 25 26 27 28 29 30 31 32 33 34 35 36 37 38 39 40 41 42 43 44 45 46 47 48 49 50
000
ASUS43 KDMX 220306
RWRIA

WEATHER ROUNDUP FOR IOWA
NATIONAL WEATHER SERVICE DES MOINES IA
1000 PM CDT TUE MAR 21 2017

NOTE: "FAIR" INDICATES FEW OR NO CLOUDS BELOW 12,000 FEET WITH NO
SIGNIFICANT WEATHER AND/OR OBSTRUCTIONS TO VISIBILITY.

* - THESE STATIONS ARE NOT NWS STATIONS...THUS NOT UNDER NWS
QUALITY CONTROL.  THEY ALSO DO NOT REPORT WEATHER SUCH
AS PRECIPITATION OR FOG.

IAZ001>003-012>014-020>022-031>034-043>046-220400-
   NORTHWEST IOWA

CITY           SKY/WX    TMP DP  RH WIND       PRES   REMARKS
CARROLL *      CLOUDY    36  25  64 N13       30.43R WCI  27
CHEROKEE *     CLOUDY    33  22  63 NE10      30.45R WCI  25
DENISON *      PTCLDY    37  25  60 NE10      30.41R WCI  30
LE MARS *      CLOUDY    34  23  64 NE12      30.47R WCI  25
ORANGE CITY *  CLOUDY    32  25  74 NE7       30.45R WCI  26
SHELDON *      CLEAR     30  28  93 N9        30.45R WCI  22
SIOUX CITY     MOCLDY    37  23  56 NE13      30.46R WCI  29
SPENCER        CLEAR     28  21  75 N7        30.46R WCI  21
$$

IAZ055>058-069>071-079>083-090>094-220400-
   SOUTHWEST IOWA

CITY           SKY/WX    TMP DP  RH WIND       PRES   REMARKS
ATLANTIC *     CLOUDY    39  28  65 NE10      30.40S WCI  32
AUDUBON *      CLOUDY    37  27  65 N10       30.42R WCI  30
CLARINDA *       N/A     39  23  52 NE5       30.41R
COUNCIL BLFS * CLOUDY    41  25  52 NE13      30.41R
CRESTON *      PTCLDY    37  25  60 N12       30.40R WCI  30
HARLAN  *      CLOUDY    39  28  65 NE12      30.44S WCI  32
LAMONI         PTCLDY    38  21  50 N7        30.37R WCI  33
RED OAK *      CLOUDY    41  25  52 NE13      30.40R
SHENANDOAH *   PTCLDY    37  23  56 NE5       30.40R WCI  34
$$

IAZ047>049-059>061-072>074-084-220400-
   CENTRAL IOWA

CITY           SKY/WX    TMP DP  RH WIND       PRES   REMARKS
AMES           CLOUDY    37  22  54 N13       30.43R WCI  29
ANKENY *       CLOUDY    36  23  60 N9        30.43R WCI  29
BOONE *        CLOUDY    36  23  60 N12       30.41R WCI  27
CHARITON *     PTCLDY    39  23  52 N12       30.37R WCI  32
DES MOINES     MOCLDY    41  22  46 N12       30.41R
GRINNELL*      CLEAR     35  23  61 N10G16    30.40R WCI  27
MARSHALLTOWN   CLEAR     32  21  64 N12       30.41R WCI  23
NEWTON *       CLEAR     36  21  55 N9        30.40R WCI  29
PELLA *        CLOUDY    37  24  59 N9        30.41R WCI  30
$$

IAZ004>006-015-016-023>025-035-036-220400-
   NORTH CENTRAL IOWA

CITY           SKY/WX    TMP DP  RH WIND       PRES   REMARKS
ALGONA *       CLEAR     30  23  74 N13       30.45R WCI  20
CLARION *      CLEAR     30  23  74 N7        30.44R WCI  23
ESTHERVILLE    CLEAR     28  22  78 N12       30.46R WCI  18
FORT DODGE *   CLEAR     32  18  55 N7        30.45R WCI  26
MASON CITY     CLEAR     29  20  69 N12       30.46R WCI  19
FOREST CITY *    N/A     30  19  64 N9        30.46R WCI  22
WEBSTER CITY * CLEAR     32  23  69 N10       30.42R WCI  24
IOWA FALLS *     N/A     32  24  73 N6        30.43R WCI  26
$$

IAZ007>011-017>019-026>030-037>042-050>054-066-220400-
   NORTHEAST IOWA

CITY           SKY/WX    TMP DP  RH WIND       PRES   REMARKS
CEDAR RAPIDS   CLEAR     35  19  52 N15       30.38R WCI  25
CHARLES CITY * CLEAR     30  18  59 N12       30.44R WCI  21
CLINTON *      CLEAR     36  19  50 N12       30.36R WCI  28
DECORAH *      CLEAR     30  14  51 N12       30.42R WCI  21
DUBUQUE        CLEAR     36  15  42 N13       30.37R WCI  27
MONTICELLO *   CLEAR     36  19  51 N14       30.37R WCI  27
OELWEIN *      CLEAR     32  19  59 N15       30.41R WCI  22
WATERLOO       CLEAR     31  18  58 N14       30.42R WCI  21
$$

IAZ064-065-067-068-078-220400-
   EAST CENTRAL IOWA

CITY           SKY/WX    TMP DP  RH WIND       PRES   REMARKS
DAVENPORT      CLEAR     35  21  56 N12       30.35R WCI  27
IOWA CITY      CLEAR     42  18  37 N15       30.39R
MUSCATINE *    PTCLDY    41  19  42 N10       30.37R
QUAD CITIES    CLEAR     41  21  44 N6        30.34R
$$

IAZ062-063-075>077-085>089-095>099-220400-
   SOUTHEAST IOWA

CITY           SKY/WX    TMP DP  RH WIND       PRES   REMARKS
BURLINGTON     CLEAR     42  23  46 N13       30.33R
FAIRFIELD *    CLEAR     37  23  56 N10       30.36R WCI  30
FORT MADISON * CLEAR     36  27  69 N8        30.35R WCI  29
KEOKUK *       CLEAR     41  28  60 NW5       30.34R
OSKALOOSA *      N/A     36  23  59 N12       30.39R WCI  28
CENTERVILLE *    N/A     41  23  48 N13       30.38R
OTTUMWA        CLOUDY    38  22  52 N13       30.37R WCI  30
WASHINGTON *   CLEAR     39  21  48 N14G20    30.37R WCI  31
$$

ABBREVIATIONS USED IN REMARKS
   TC - TEMPERATURES IN CELSIUS
  WCI - WIND CHILL INDEX
   HX - HEAT INDEX
  VSB - VISIBILITY
$$





USA.gov is the U.S. government's official web portal to all federal, state and local government web resources and services.